Regional Weather Roundup
Issued by NWS

Home | Current Version | Previous Version | Text Only | Print | Product List | Glossary Off
Versions: 1 2 3 4 5 6 7 8 9 10 11 12 13 14 15 16 17 18 19 20 21 22 23 24 25 26 27 28 29 30 31 32 33 34 35 36 37 38 39 40 41 42 43 44 45 46 47 48 49 50

000
ASUS43 KLMK 251802
RWRKY
KENTUCKY REGIONAL WEATHER ROUNDUP
NATIONAL WEATHER SERVICE LOUISVILLE KY
200 PM EDT TUE JUL 25 2017

NOTE "FAIR" INDICATES FEW OR NO CLOUDS BELOW 12,000 FEET
WITH NO SIGNIFICANT WEATHER AND/OR OBSTRUCTIONS TO VISIBILITY.

KYZ001>023-026-027-061>063-070>075-251900-
WESTERN AND SOUTH CENTRAL KENTUCKY

CITY           SKY/WX    TMP DP  RH WIND       PRES   REMARKS
PADUCAH        SUNNY     91  75  59 SE6       30.06F HX 101
HENDERSON      PTSUNNY   86  74  67 E7        30.11S HX  94
OWENSBORO      MOSUNNY   87  71  58 VRB6      30.11F HX  93
HOPKINSVILLE   MOSUNNY   89  74  62 E6        30.08F HX  97
BOWLING GREEN  MOSUNNY   88  74  63 NE6       30.11F HX  96
GLASGOW        NOT AVBL
$$

KYZ024-025-028>034-038-045-046-053-251900-
NORTH CENTRAL KENTUCKY

CITY           SKY/WX    TMP DP  RH WIND       PRES   REMARKS
LOUISVILLE/SDF PTSUNNY   85  66  53 CALM      30.13F
LOUISVILLE/LOU MOSUNNY   84  67  56 SE5       30.14F
FORT KNOX      SUNNY     82  69  63 N5        30.13S
$$

KYZ035>037-039>044-047>052-055>060-089>105-251900-
NORTHEAST KENTUCKY

CITY           SKY/WX    TMP DP  RH WIND       PRES   REMARKS
LEXINGTON      SUNNY     81  63  54 NE8       30.17S
COVINGTON      MOSUNNY   79  59  50 N6        30.19S
FRANKFORT      MOSUNNY   82  62  50 N5        30.16S
$$

KYZ054-064>069-076>088-106>120-251900-
SOUTHEAST KENTUCKY

CITY           SKY/WX    TMP DP  RH WIND       PRES   REMARKS
JACKSON        MOSUNNY   81  69  67 CALM      30.17F
LONDON         SUNNY     82  68  62 N6        30.16S
SOMERSET       MOSUNNY   81  70  69 N6        30.15S
MIDDLESBORO    PTSUNNY   86  72  62 N5        30.13S HX  92
MONTICELLO     CLEAR     84  73  69 N15       30.15F HX  90
$$




USA.gov is the U.S. government's official web portal to all federal, state and local government web resources and services.